Regional Weather Roundup
Issued by NWS

Home | Current Version | Previous Version | Graphics & Text | Print | Product List | Glossary On
Versions: 1 2 3 4 5 6 7 8 9 10 11 12 13 14 15 16 17 18 19 20 21 22 23 24 25 26 27 28 29 30 31 32 33 34 35 36 37 38 39 40 41 42 43 44 45 46 47 48 49 50
000
ASUS43 KLOT 041012
RWRIL

ILLINOIS REGIONAL WEATHER ROUNDUP
NATIONAL WEATHER SERVICE CHICAGO/ROMEOVILLE IL
500 AM CDT TUE AUG 04 2015

NOTE: "FAIR" INDICATES FEW OR NO CLOUDS BELOW 12,000 FEET WITH NO
SIGNIFICANT WEATHER AND/OR OBSTRUCTIONS TO VISIBILITY.

* THESE STATIONS ARE NOT UNDER NWS QUALITY CONTROL. THEY ALSO MAY NOT
  REPORT WEATHER SUCH AS PRECIPITATION OR FOG.

ILZ001-002-007-009-015-016-024-041100-
NORTHWEST ILLINOIS

CITY           SKY/WX    TMP DP  RH WIND       PRES   REMARKS
MOLINE         CLEAR     59  55  87 SW5       29.95S
STERLING*      CLEAR     59  55  88 W3        29.92S
SAVANNA*       CLEAR     56  54  94 S3        29.94S
$$

ILZ003-004-008-010-011-017-018-041100-
NORTH CENTRAL ILLINOIS

CITY           SKY/WX    TMP DP  RH WIND       PRES   REMARKS
ROCKFORD       CLEAR     57  53  86 CALM      29.95S
FREEPORT*      CLEAR     55  53  93 CALM      29.96S
ROCHELLE*      CLEAR     52  51  98 CALM      29.95R
DE KALB*       CLEAR     57  54  88 SW5       29.96R
PERU*          CLEAR     60  55  84 CALM      29.96S
$$

ILZ005-006-012>014-019>023-041100-
NORTHEAST ILLINOIS

CITY           SKY/WX    TMP DP  RH WIND       PRES   REMARKS
CHICAGO-OHARE  CLEAR     63  55  75 W3        29.92S
CHICAGO-MIDWAY CLEAR     65  55  70 CALM      29.93R
AURORA         CLEAR     54  51  90 W3        29.94S
LANSING*       CLEAR     57  55  91 CALM      29.94R
JOLIET*        CLEAR     57  56  97 CALM      29.94S
WAUKEGAN       CLEAR     58  55  90 CALM      29.91S
DUPAGE AIRPORT CLEAR     58  55  90 CALM      29.93S
KANKAKEE*      CLEAR     59  57  91 W5        29.95S
WHEELING       CLEAR     63  54  72 CALM      29.93S
MORRIS*        CLEAR     56  54  92 W3        29.94R
ROMEOVILLE*    CLEAR     58  55  91 CALM      29.94R
NORTHERLY ISL    N/A     68  54  60 W7          N/A
$$

LMZ740>746-041100-
SOUTHERN LAKE MICHIGAN

STATION/POSITION SKY/WX   TEMP    WIND        PRES    VSBY  WAVE
                          AIR SEA DIR/SP/G                  HT/PER
                          (F)     (DEG/KT/KT) (MB)    (MI)  (FT/S)
HARRISON CRIB              70     290/  9/ 11   N/A
BURNHAM HARBOR             68     270/  4/  8   N/A
CALUMET HARBOR             66     240/  3/  4   N/A
BURNS HARBOR               66     200/  6/  7 1013.9R
MICHIGAN CITY              65     180/  5/  6   N/A
MICHIGAN CITY 6N           72 73  300/  6/  8   N/A           2/ 3
ST. JOSEPH                 71 73  360/  6/  8   N/A           2/ 3
$$

ILZ025>027-034>036-040-047-049-050-058-095>099-041100-
WEST-CENTRAL ILLINOIS

CITY           SKY/WX    TMP DP  RH WIND       PRES   REMARKS
QUINCY         CLOUDY    65  61  87 CALM      29.97R
GALESBURG*     PTCLDY    57  56  98 CALM      29.97R
MACOMB*        PTCLDY    58  57  97 SW3       30.00R
JACKSONVILLE*  MOCLDY    65  63  93 CALM      29.98R
PITTSFIELD*    CLOUDY    68  65  90 CALM      29.99R
$$

ILZ028>032-037-038-041>044-048-051>054-059>061-041100-
CENTRAL ILLINOIS

CITY           SKY/WX    TMP DP  RH WIND       PRES   REMARKS
PONTIAC        CLEAR     60  58  94 CALM      29.97R
BLOOMINGTON    CLEAR     65  57  75 NW5       29.98R
DECATUR        CLEAR     64  60  87 SW3       29.97R
PEORIA         CLEAR     63  57  81 CALM      29.97R
LACON*         CLEAR     58  56  91 CALM      29.95S
LINCOLN*       CLEAR     62  58  88 S3        29.97R
SPRINGFIELD    CLEAR     62  59  90 CALM      29.98R
TAYLORVILLE    CLOUDY    64  63  94 CALM      29.97S
$$

ILZ033-039-045-046-055>057-062-063-041100-
EAST-CENTRAL ILLINOIS

CITY           SKY/WX    TMP DP  RH WIND       PRES   REMARKS
CHAMPAIGN      CLEAR     58  56  93 SW3       29.96R
DANVILLE*      CLEAR     55  55  98 CALM      29.93R
RANTOUL*       CLEAR     61  57  88 W5        29.96R
MATTOON        MOCLDY    65  59  81 CALM      29.96R
PARIS*         CLEAR     57  56  99 CALM      29.97S
$$

ILZ079-100>102-041100-
SOUTHWEST ILLINOIS

CITY           SKY/WX    TMP DP  RH WIND       PRES   REMARKS
ALTON          CLOUDY    70  65  84 N3        29.97R
BELLEVILLE     MOCLDY    73  71  94 N2        29.95R
CAHOKIA*       MOCLDY    75  69  81 CALM      29.95R
SPARTA*        PTCLDY    72  69  92 CALM      29.96S
$$

ILZ064>066-069>071-074>076-080>082-084>086-088>090-092>094-041100-
SOUTH-CENTRAL ILLINOIS

CITY           SKY/WX    TMP DP  RH WIND       PRES   REMARKS
CARBONDALE     FOG       73  72  96 CALM      29.95R VSB 3/4
CAIRO*         PTCLDY    73  73  99 CALM      29.94R
EFFINGHAM*     CLOUDY    68  63  85 CALM      29.98R
MARION         MOCLDY    73  72  94 CALM      29.96S
MT. VERNON     MOCLDY    70  63  78 N3        29.96S
CENTRALIA*     CLOUDY    71  66  84 CALM      29.96R
SALEM*         CLOUDY    74  66  76 CALM      29.96S
METROPOLIS*    PTCLDY    73  73 100 CALM      29.95S FOG
$$

ILZ067-068-072-073-078-083-087-091-041100-
SOUTHEAST ILLINOIS

CITY           SKY/WX    TMP DP  RH WIND       PRES   REMARKS
LAWRENCEVILLE  PTCLDY    71  64  78 CALM      29.95S
FLORA*         PTCLDY    70  66  87 CALM      29.96S
FAIRFIELD*     MOCLDY    71  67  88 N3        29.94S
HARRISBURG*    PTCLDY    71  71 100 CALM      29.96S
ROBINSON*      MOCLDY    65  64  96 CALM      29.96S
CARMI*         MOCLDY    70  66  87 CALM      29.95R
$$

ABBREVIATIONS USED IN REMARKS
   TC - TEMPERATURE IN CELSIUS
  WCI - WIND CHILL INDEX
   HX - HEAT INDEX
  VSB - VISIBILITY
$$




USA.gov is the U.S. government's official web portal to all federal, state and local government web resources and services.